Location: Doloum
(14.8345°N, 3.0987°W)
Time: 18:25:36
(UTC+00:00)

Daily predictions for brighter satellites

Satellite Brightness Start Highest point End
(mag) Time Altitude Azimuth Time Altitude Azimuth Time Altitude Azimuth
COSMOS 2455 4.1 17:54:49 10° SSE 17:59:08 21° ESE 18:03:28 10° ENE
NOAA 12 4.4 17:59:36 10° SSE 18:04:41 47° ENE 18:09:47 10° N
H-2A R/B 2.7 18:01:04 10° SSE 18:04:56 87° E 18:08:47 10° N
Cosmos 2297 Rocket 2.2 18:02:51 10° N 18:08:26 62° ENE 18:14:00 10° SSE
Cosmos 2227 Rocket 2.3 18:03:22 10° N 18:08:53 56° ENE 18:14:23 10° SSE
Okean-O 2.6 18:08:14 10° SSE 18:12:35 59° ENE 18:16:56 10° N
Hubble Space Telescope 2.1 18:11:14 10° W 18:14:54 30° NNW 18:18:33 10° NE
Intelsat 5-3 Rocket 3.6 18:15:22 10° NW 18:16:52 13° N 18:18:09 10° NNE
Palapa 6 Rocket 2.8 18:13:16 10° WSW 18:16:57 61° SSE 18:20:20 14° E
SKYMED 2 4.1 18:12:56 10° N 18:17:13 64° WNW 18:21:29 10° SSW
Cosmos 1513 Rocket 4.5 18:13:38 10° N 18:19:58 75° E 18:26:10 10° S
Cosmos 1633 2.5 18:16:46 10° N 18:20:21 89° WNW 18:23:57 10° S
YAOGAN 3 4.5 18:17:49 10° SSE 18:22:10 79° ENE 18:26:31 10° N
SMAP 4.2 18:18:48 10° S 18:23:16 48° W 18:27:45 10° NNW
ATLAS 2AS CENTAUR R/B 4.1 18:19:26 10° SSE 18:24:58 22° ESE 18:29:04 15° ENE
Cosmos 2084 4.3 18:24:24 10° NW 18:28:26 50° WSW 18:32:25 10° S
Cosmos 2034 Rocket 4.0 18:22:43 10° N 18:29:00 61° E 18:35:16 10° SSE
CZ-4 R/B 2.0 18:25:12 10° SE 18:29:03 36° ENE 18:32:50 10° N
ATLAS 5 CENTAUR R/B 2.6 18:28:17 10° NNW 18:34:53 78° ENE 18:42:01 10° SSE
Cosmos 2228 Rocket 3.0 18:31:10 10° S 18:35:33 73° E 18:40:00 10° N
Tsikada Rocket 4.3 18:31:00 10° S 18:37:16 73° W 18:43:38 10° N
CZ-4 R/B 4.5 18:34:09 10° SSE 18:38:10 54° ENE 18:42:12 10° N
YAOGAN 6 2.4 18:34:45 10° SSE 18:38:13 60° ENE 18:41:39 10° N
NOSS 2-2 (E) 3.2 18:34:30 10° SSW 18:38:29 57° ESE 18:40:33 23° NE
Cosmos 2082 3.6 18:33:36 10° N 18:39:09 63° ENE 18:44:43 10° SSE
Cosmos 1048 Rocket 4.4 18:40:56 10° S 18:45:48 41° E 18:48:35 23° NE
USA 40 PKM 4.1 18:42:46 10° NNW 18:46:07 72° ENE 18:50:29 10° SE
Delta 168 4.5 18:45:43 10° NNW 18:47:46 15° N 18:48:01 15° N
Cosmos 1633 Rocket 3.9 18:45:58 10° NNW 18:50:15 51° W 18:54:32 10° S
GOES 2 Rocket 4.1 18:45:30 10° SW 18:50:47 38° SSE 18:52:41 27° ESE
Meteor 1-26 Rocket 4.3 18:45:25 10° S 18:51:22 85° E 18:57:22 10° N
Aurora 2 Rocket 3.5 18:48:19 10° WNW 18:51:47 33° N 18:53:31 25° NNE
Delta 198 4.5 18:49:48 10° WNW 18:56:19 57° NNE 18:58:50 33° ENE
GPS 2-15 Rocket1 3.2 18:54:05 10° WNW 18:58:52 62° N 19:00:18 42° ENE
ISS -1.2 18:56:47 10° W 18:59:07 17° NW 19:01:00 12° N
H-2A R/B 1.1 18:56:48 10° WSW 18:59:26 42° NW 18:59:26 42° NW
NOAA 11 4.4 18:55:18 10° SE 19:00:22 42° ENE 19:05:27 10° N
Cosmos 468 4.4 18:55:28 10° S 19:00:44 75° ESE 19:04:11 22° NNE
CSL-04 Debris 4.1 18:55:48 10° SSE 19:01:15 70° ENE 19:06:42 10° N
NATO 3D Rocket 4.2 18:57:13 10° WNW 19:02:38 54° NNE 19:05:23 34° ENE
Cosmos 1933 Rocket 3.4 19:01:20 10° N 19:05:40 76° E 19:10:02 10° S
Cosmos 2237 4.4 19:04:06 10° S 19:09:32 46° ESE 19:10:12 44° E
YAOGAN 1 2.7 19:09:48 10° S 19:14:06 71° WSW 19:18:24 10° NNW
CSL-04 Rocket 3.6 19:09:23 10° S 19:14:49 84° WSW 19:20:10 10° NNW
SeaSat 1 2.4 19:15:54 10° SSE 19:20:49 82° WSW 19:25:44 10° NNW
Cosmos 1782 3.2 19:16:59 10° SSW 19:20:57 62° W 19:21:44 50° NW
Cosmos 1624 Rocket 3.9 19:15:45 10° N 19:21:03 69° ENE 19:26:17 10° SSE
Atlas Centaur 2 3.3 19:13:45 10° SW 19:21:31 45° SSE 19:23:16 39° ESE
Cosmos 2056 Rocket 3.7 19:16:42 10° N 19:24:55 25° SSE 19:27:04 10° SSE
Cosmos 2360 Rocket 2.0 19:18:34 10° S 19:24:09 74° ESE 19:24:51 65° NE
NOSS 2-2 (D) 4.3 19:20:33 10° SW 19:24:18 38° WNW 19:24:45 37° NW
ASTRO E2 3.4 19:20:27 10° WSW 19:23:49 48° WNW 19:23:49 48° WNW
SL-16 R/B 3.7 19:22:32 10° SW 19:27:34 33° WNW 19:32:37 10° N
CZ-3C R/B 1.7 19:24:55 10° WNW 19:28:33 42° W 19:28:33 42° W
Meteor 1-25 Rocket 4.1 19:25:01 10° N 19:30:45 77° E 19:36:33 10° S
Cosmos 494 Rocket 4.5 19:25:58 10° S 19:29:46 46° SSE 19:29:46 46° SSE
Meteor 1-10 Rocket 4.5 19:26:16 10° S 19:30:44 52° SE 19:30:44 52° SE
Meteor 1-20 Rocket 4.1 19:27:03 10° N 19:32:50 80° E 19:38:30 10° S
Cosmos 2322 Rocket 3.7 19:30:31 10° SW 19:35:29 33° WNW 19:39:45 13° NNW
NOSS 3-4 (A) 3.8 19:31:59 10° S 19:36:32 45° SSE 19:36:32 45° SSE
NOSS 3-4 (C) 3.9 19:32:05 10° S 19:36:36 44° SSE 19:36:36 44° SSE
COSMOS 2455 4.2 19:39:20 10° SW 19:44:43 34° WNW 19:48:02 20° NNW
Centaur D-1AR AC-41 4.4 19:44:54 10° WNW 19:46:33 24° NW 19:46:33 24° NW
ADEOS Rocket 3.4 20:00:35 52° W 20:00:35 52° W 20:05:47 10° SSW
ATLAS 2AS CENTAUR R/B 3.6 20:08:11 10° SW 20:15:27 50° WNW 20:16:36 47° NW
H-2A R/B 4.4 20:00:09 10° WNW 20:29:25 46° N 20:29:25 46° N
ATLAS 5 CENTAUR R/B 4.2 21:17:31 10° WNW 22:05:00 23° ESE 22:34:41 10° ESE
